Date,TemperatureHighF,TemperatureAvgF,TemperatureLowF,DewpointHighF,DewpointAvgF,DewpointLowF,HumidityHigh,HumidityAvg,HumidityLow,PressureMaxIn,PressureMinIn,WindSpeedMaxMPH,WindSpeedAvgMPH,GustSpeedMaxMPH,PrecipitationSumIn
2013-1-2,30.9,28.2,25.3,-7.6,-9.5,-11.1,19,18,18,29.56,29.47,17,5,17,0.00
2013-1-3,33.4,26.9,21.9,-5.7,-10.2,-13.0,20,19,18,29.59,29.50,12,3,12,0.00
2013-1-4,38.5,33.7,29.7,-3.6,-5.9,-9.2,18,17,16,29.53,29.41,15,2,15,0.00
2013-1-5,37.0,32.3,27.5,3.5,-6.7,-10.4,30,18,17,29.71,29.44,0,0,0,0.00
2013-1-6,45.5,37.4,29.7,24.4,5.5,-6.6,68,30,15,29.59,29.38,15,2,15,0.00
2013-1-7,42.4,39.2,32.4,-0.3,-2.9,-6.4,23,16,16,29.80,29.44,13,3,13,0.00
2013-1-8,47.1,35.9,26.8,10.9,0.9,-5.4,41,23,14,29.77,29.71,9,1,9,0.00
2013-1-9,45.9,35.9,27.0,22.5,14.5,8.9,55,42,25,29.77,29.59,9,1,9,0.00
2013-1-10,46.8,41.3,35.1,12.6,-1.5,-5.3,29,16,14,29.94,29.65,11,3,12,0.00
2013-1-11,45.5,40.2,34.0,37.2,11.5,-5.8,81,35,16,29.88,29.47,10,2,11,0.00
2013-1-12,53.2,44.8,41.7,48.1,40.7,34.9,94,86,54,29.53,29.47,5,0,5,0.00
2013-1-13,50.7,45.5,39.9,49.1,43.5,35.2,95,92,83,29.50,29.35,8,3,9,0.00
2013-1-14,55.0,50.9,41.5,53.1,34.3,0.1,94,64,14,29.68,29.29,14,3,14,0.00
2013-1-15,41.5,37.8,34.7,34.9,16.0,1.1,82,45,22,29.74,29.59,8,0,8,0.00
2013-1-16,37.8,35.3,33.4,33.1,28.8,12.7,86,78,40,29.62,29.23,11,1,11,0.00
2013-1-17,39.9,38.1,35.6,33.5,10.7,-0.7,83,37,18,29.50,29.32,13,3,15,0.00
2013-1-18,35.6,30.6,26.6,12.6,-5.6,-11.0,39,21,17,29.85,29.38,27,5,27,0.00
2013-1-19,52.2,38.1,27.5,4.0,-3.1,-10.6,25,17,13,29.80,29.35,14,4,14,0.00
2013-1-20,52.5,40.9,30.0,4.0,-2.1,-8.3,18,16,13,29.44,29.15,28,6,28,0.00
2013-1-21,34.2,27.7,23.4,4.9,-8.9,-12.8,36,20,17,29.47,29.23,20,4,20,0.00
2013-1-22,25.3,17.2,12.7,1.8,-18.0,-21.9,40,19,17,29.62,29.26,22,10,23,0.00
2013-1-23,19.6,13.9,10.4,-17.2,-21.0,-23.7,19,19,18,29.68,29.53,16,5,17,0.00
2013-1-24,24.3,17.9,13.6,-10.4,-16.9,-21.0,32,20,17,29.83,29.47,23,5,24,0.00
2013-1-25,20.7,16.3,13.5,1.9,-14.1,-21.1,49,26,17,29.83,29.44,10,3,13,0.00
2013-1-26,25.5,18.8,11.7,1.0,-7.8,-15.9,49,32,19,29.74,29.41,13,3,14,0.00
2013-1-27,33.1,22.2,10.9,-3.7,-11.7,-17.4,38,22,18,29.91,29.74,11,2,11,0.00
2013-1-28,36.3,31.8,24.4,30.4,13.8,-11.9,79,51,18,29.85,29.41,11,2,11,0.00
2013-1-29,58.8,45.0,35.4,36.0,29.4,21.6,85,59,24,29.50,29.38,10,2,10,0.00
2013-1-30,64.6,54.7,46.2,55.0,46.7,28.9,91,76,43,29.41,28.82,19,5,19,0.00
2013-1-31,61.0,43.5,28.6,58.0,13.3,-9.5,91,37,14,29.23,28.53,31,10,31,0.00
2013-2-1,28.6,25.8,20.5,-9.5,-11.5,-17.5,20,18,17,29.65,29.21,27,9,27,0.00
2013-2-2,25.3,20.4,15.3,12.1,-11.1,-20.0,58,26,17,29.71,29.41,17,5,17,0.00
2013-2-3,29.7,26.1,21.9,16.5,6.7,-7.4,64,45,20,29.41,29.18,17,1,17,0.00
2013-2-4,31.1,25.3,20.1,6.7,-11.0,-14.5,41,19,18,29.44,29.23,22,5,22,0.00
2013-2-5,34.3,30.9,28.0,21.1,7.3,-9.5,61,38,18,29.32,29.23,8,2,8,0.00
2013-2-6,37.6,32.7,24.4,27.9,8.7,-8.0,81,44,16,29.68,29.26,17,3,17,0.00
2013-2-7,36.1,30.1,24.1,-0.5,-7.2,-11.6,32,19,17,29.83,29.68,10,2,10,0.00
2013-2-8,37.8,34.8,31.1,31.8,14.9,-7.4,89,49,18,29.68,29.12,0,0,0,0.00
2013-2-9,34.5,27.8,23.0,30.8,-8.6,-12.9,86,20,18,29.71,29.18,28,11,28,0.00
2013-2-10,41.0,28.6,18.0,-1.9,-9.3,-16.3,20,18,16,29.85,29.62,10,2,10,0.00
2013-2-11,48.2,40.1,33.6,45.1,28.2,-6.4,92,71,17,29.65,29.06,10,4,10,0.00
2013-2-12,43.5,40.1,33.1,40.3,1.5,-5.8,89,21,15,29.38,29.15,20,5,20,0.00
2013-2-13,41.0,34.0,26.6,26.6,6.8,-4.7,75,35,16,29.35,29.09,8,1,9,0.00
2013-2-14,45.3,36.9,33.1,32.2,13.3,-4.5,90,48,15,29.38,29.12,11,2,11,0.00
2013-2-15,53.8,41.6,34.0,21.5,5.9,-4.2,59,25,13,29.41,29.32,18,4,18,0.00
2013-2-16,34.5,32.8,30.2,30.2,13.0,-8.2,91,52,18,29.41,29.21,10,2,11,0.00
2013-2-17,30.2,26.1,22.3,-8.2,-11.0,-16.0,20,19,17,29.47,29.18,28,11,28,0.00
2013-2-18,36.7,25.9,18.3,-4.0,-12.1,-18.1,20,18,17,29.71,29.47,26,7,26,0.00
2013-2-19,42.1,36.5,31.1,33.0,7.7,-7.4,71,34,16,29.59,29.12,14,5,16,0.00
2013-2-20,36.9,28.6,23.7,-3.9,-9.3,-12.5,19,18,17,29.47,29.18,24,10,26,0.00
2013-2-21,34.2,27.2,22.8,-5.3,-10.0,-12.9,20,19,17,29.71,29.47,25,8,25,0.00
2013-2-22,34.5,29.2,23.5,12.1,-5.8,-12.5,40,22,17,29.77,29.62,10,2,11,0.00
2013-2-23,45.7,38.7,33.6,42.9,32.2,9.5,91,79,36,29.65,29.23,0,0,0,0.00
2013-2-24,41.9,39.2,31.5,38.8,29.2,-7.2,93,77,16,29.47,29.20,26,1,26,0.00
2013-2-25,45.3,36.0,28.6,2.0,-3.8,-8.3,31,18,15,29.62,29.44,13,4,13,0.00
2013-2-26,43.9,36.8,29.3,22.7,4.1,-6.4,53,26,15,29.65,29.21,20,4,20,0.00
2013-2-27,50.0,43.6,38.1,38.4,19.5,-0.6,85,46,14,29.21,28.94,23,6,23,0.00
2013-2-28,44.4,41.2,36.5,22.3,3.0,-3.7,51,21,15,29.12,29.03,16,4,16,0.00
2013-3-1,41.5,38.1,35.1,8.2,0.4,-4.7,30,20,16,29.29,29.09,15,4,15,0.00
2013-3-2,37.0,33.9,30.9,-3.7,-5.7,-7.6,18,18,17,29.29,29.18,15,5,15,0.00
2013-3-3,34.3,31.1,27.1,-0.6,-7.3,-10.7,25,18,17,29.26,29.18,20,8,20,0.00
2013-3-4,36.0,30.9,27.0,-4.6,-7.8,-10.9,18,18,17,29.44,29.26,26,10,26,0.00
2013-3-5,46.2,34.9,28.2,1.0,-5.6,-10.0,18,17,15,29.50,29.35,14,4,14,0.00
2013-3-6,39.2,37.3,34.5,21.5,7.9,-4.7,53,31,16,29.41,29.18,20,6,20,0.00
2013-3-7,45.7,38.6,34.0,0.7,-3.4,-6.2,17,16,15,29.56,29.38,24,7,24,0.00
2013-3-8,43.2,37.3,32.0,-0.4,-4.0,-6.7,18,17,15,29.71,29.53,25,10,25,0.00
2013-3-9,59.4,43.6,32.0,6.8,-1.0,-6.7,18,15,12,29.77,29.68,12,4,15,0.00
2013-3-10,59.0,45.9,34.7,10.2,0.3,-5.6,29,15,12,29.77,29.68,13,4,13,0.00
2013-3-11,56.1,47.5,38.1,37.2,23.3,5.7,81,44,15,29.71,29.44,15,6,15,0.00
2013-3-12,57.6,52.3,41.7,53.1,29.8,-1.6,85,47,15,29.47,29.21,19,8,19,0.00
2013-3-13,45.3,39.7,34.0,17.8,-2.2,-6.2,44,17,15,29.44,29.35,20,6,22,0.00
2013-3-14,39.7,34.1,28.9,-2.8,-5.8,-9.2,18,17,16,29.50,29.44,27,10,28,0.00
2013-3-15,52.5,38.8,27.9,4.0,-3.5,-10.1,18,16,13,29.53,29.23,21,6,22,0.00
2013-3-16,45.1,37.3,32.9,27.4,8.1,-4.7,77,35,15,29.41,29.21,10,1,10,0.00
2013-3-17,37.6,34.2,32.4,27.5,5.4,-6.4,77,34,16,29.77,29.41,13,2,13,0.00
2013-3-18,36.5,32.7,30.0,14.0,-5.6,-8.3,40,19,17,29.83,29.59,17,4,17,0.00
2013-3-20,46.4,41.8,36.3,1.1,-1.6,-4.7,17,16,14,29.47,29.29,21,6,22,0.00
2013-3-21,36.3,31.8,27.5,3.7,-6.8,-10.4,28,18,17,29.35,29.23,19,6,19,0.00
2013-3-22,39.6,32.2,26.8,8.4,-6.8,-11.0,37,18,16,29.50,29.32,25,7,25,0.00
2013-3-23,44.8,36.7,30.0,0.0,-4.4,-8.5,18,17,15,29.53,29.44,19,7,20,0.00
2013-3-24,44.8,36.9,27.9,0.0,-4.3,-10.1,18,17,15,29.53,29.21,10,2,10,0.00
2013-3-25,39.2,35.1,32.2,29.5,10.8,-6.4,76,41,16,29.23,29.06,10,2,10,0.00
2013-3-27,47.8,43.8,37.9,1.1,-0.8,-4.2,16,15,14,29.62,29.53,19,8,22,0.00
2013-3-28,46.8,40.7,34.2,2.7,-1.4,-5.3,22,17,14,29.74,29.59,18,5,18,0.00
2013-3-29,52.0,44.5,37.6,3.7,-0.2,-4.5,16,15,13,29.77,29.68,0,0,0,0.00
2013-3-30,56.5,45.5,33.1,7.1,0.9,-6.4,30,16,12,29.80,29.68,8,0,8,0.00
2013-3-31,52.9,46.4,39.4,45.3,12.0,-3.1,88,32,13,29.71,29.32,15,4,15,0.00
2013-4-1,59.2,46.6,36.9,46.8,19.9,-3.8,93,48,12,29.56,29.29,26,6,26,0.00
2013-4-2,43.2,36.5,31.5,-0.4,-4.4,-7.2,18,17,15,29.74,29.53,24,6,24,0.00
2013-4-3,44.8,36.4,30.2,-0.2,-4.5,-8.2,18,17,15,29.91,29.71,25,6,28,0.00
2013-4-4,51.3,37.7,27.5,3.7,-4.0,-10.6,18,16,14,30.00,29.68,11,3,11,0.00
2013-4-5,50.9,40.8,36.9,17.9,7.7,-2.2,43,27,14,29.68,29.50,11,2,12,0.00
2013-4-8,76.5,72.0,66.0,17.0,15.0,12.1,13,11,10,29.68,29.53,11,4,12,0.00
2013-4-9,74.3,65.3,58.3,16.5,13.0,9.6,19,13,11,29.68,29.53,16,4,17,0.00
2013-4-11,74.3,73.8,73.2,32.1,31.8,31.1,22,21,21,29.47,29.47,9,4,9,0.00
2013-4-16,70.7,66.3,62.2,33.7,20.9,12.8,34,19,12,29.59,29.53,15,6,15,0.00
2013-4-17,69.6,61.5,56.3,54.9,25.8,5.8,85,32,10,29.65,29.50,9,2,9,0.00
2013-4-18,65.5,59.1,54.5,55.6,31.0,4.2,82,41,12,29.65,29.44,15,7,15,0.00
2013-4-19,74.3,65.6,55.2,59.8,47.7,35.2,85,56,25,29.44,29.00,25,7,25,0.00
2013-4-20,55.4,49.6,42.8,47.1,7.3,-1.6,75,20,13,29.68,29.18,21,7,23,0.00
2013-4-21,43.0,35.4,33.3,-0.4,-4.8,-6.4,18,17,15,29.91,29.68,11,2,11,0.00
2013-4-22,56.3,48.5,36.1,9.4,3.0,-1.1,31,16,12,29.97,29.83,17,6,17,0.00
2013-4-23,53.6,44.3,42.3,15.1,6.5,-1.4,31,21,13,29.83,29.65,8,2,9,0.00
2013-4-26,62.1,59.3,52.7,7.8,5.9,3.1,13,12,11,29.80,29.77,11,2,11,0.00
2013-4-27,68.4,55.1,38.8,13.8,5.8,-2.6,21,14,10,29.83,29.68,8,1,8,0.00
2013-4-28,68.4,57.8,48.6,18.7,8.9,2.5,30,15,10,29.68,29.56,14,4,14,0.00
2013-4-29,59.9,56.1,52.2,56.0,43.3,3.1,90,70,13,29.59,29.47,12,2,13,0.00
2013-4-30,69.1,60.3,54.0,53.4,29.2,4.6,87,43,10,29.68,29.50,14,4,15,0.00
2013-5-1,70.3,58.0,43.0,15.4,7.5,-0.2,29,13,10,29.83,29.68,12,4,12,0.00
2013-5-2,71.6,58.6,44.8,32.8,16.0,6.0,55,22,10,29.85,29.71,12,2,12,0.00
2013-5-3,67.6,58.4,48.7,25.2,12.4,3.7,39,18,10,29.80,29.68,14,4,14,0.00
2013-5-4,70.2,56.1,41.7,36.7,18.6,3.7,72,28,10,29.74,29.56,14,3,14,0.00
2013-5-5,66.6,53.9,41.5,27.1,12.6,3.7,52,22,10,29.65,29.56,11,3,12,0.00
2013-5-6,67.3,55.5,42.6,43.4,24.6,6.2,85,36,12,29.62,29.50,11,3,12,0.00
2013-5-7,72.1,61.7,53.8,52.4,35.9,14.4,86,43,11,29.53,29.41,16,4,16,0.00
2013-5-8,73.6,64.3,60.1,57.9,38.9,12.1,85,49,11,29.44,29.29,12,3,12,0.00
2013-5-9,63.5,59.2,56.1,50.0,38.5,26.9,71,47,25,29.38,29.32,10,2,10,0.00
2013-5-13,54.3,50.0,45.1,4.5,2.4,-0.2,15,14,13,29.53,29.44,0,0,0,0.00
2013-5-14,59.9,49.5,37.8,10.2,1.9,-4.4,18,14,12,29.59,29.44,13,2,13,0.00
2013-5-15,71.8,60.0,50.4,36.5,20.1,9.7,42,23,11,29.47,29.15,11,2,11,0.00
2013-5-16,79.9,65.8,59.4,60.9,44.3,16.5,85,53,10,29.26,29.15,13,2,13,0.00
2013-6-7,65.8,65.0,63.9,62.2,60.8,59.3,88,86,85,29.12,29.06,12,3,12,0.00
2013-6-8,75.4,68.2,63.5,61.1,43.7,14.9,88,51,10,29.53,29.09,11,4,11,0.00
2013-6-9,81.7,71.1,59.2,58.8,31.9,14.9,82,32,9,29.65,29.53,13,2,13,0.00
2013-6-10,77.2,71.4,66.4,70.6,62.2,43.7,86,74,38,29.56,29.21,11,4,13,0.00
2013-6-11,78.8,72.5,67.1,65.8,42.8,16.6,85,45,10,29.23,29.15,19,5,22,0.00
2013-6-12,81.0,73.8,66.7,46.0,26.1,15.1,46,20,9,29.29,29.23,15,3,15,0.00
2013-6-13,82.9,72.4,65.7,64.6,40.4,14.9,86,40,9,29.26,28.85,18,6,18,0.00
2013-6-14,76.8,65.8,57.9,56.2,31.1,12.1,84,38,10,29.35,28.97,18,5,18,0.00
2013-6-15,79.3,70.1,59.9,50.3,25.5,14.4,68,23,10,29.50,29.35,13,3,13,0.00
2013-6-16,81.5,71.1,61.7,57.7,28.4,11.8,71,24,9,29.44,29.26,17,4,18,0.00
2013-6-17,84.9,74.0,68.0,61.8,45.5,16.6,74,44,8,29.38,29.29,26,2,26,0.00
2013-6-18,76.6,69.9,66.6,67.2,60.3,43.7,83,72,38,29.35,29.23,11,1,11,0.00
2013-6-19,77.0,69.8,63.0,62.4,33.3,13.0,86,38,10,29.56,29.32,10,1,10,0.00
2013-6-20,79.9,69.9,60.3,59.2,32.6,13.8,78,33,10,29.71,29.56,11,3,11,0.00
2013-6-21,82.8,72.0,60.4,41.2,23.4,13.1,41,19,9,29.74,29.65,11,3,11,0.00
2013-6-22,86.5,73.6,61.2,59.8,30.4,15.8,79,26,8,29.68,29.53,11,2,11,0.00
2013-6-23,74.1,70.9,67.8,63.2,53.6,35.8,82,57,25,29.65,29.59,0,0,0,0.00
2013-6-25,84.2,79.8,70.3,60.9,40.4,16.9,72,30,9,29.38,29.29,24,4,24,0.00
2013-6-26,88.0,76.9,68.5,68.8,44.5,16.6,87,48,8,29.32,29.23,24,2,24,0.00
2013-6-27,86.7,75.6,70.7,72.0,59.7,24.3,90,68,11,29.26,29.03,18,2,18,0.00
2013-6-28,84.0,75.3,71.2,66.7,50.3,17.3,79,49,9,29.03,28.91,13,4,13,0.00
2013-6-29,86.2,76.6,67.5,66.2,38.7,16.6,83,39,8,29.12,28.94,13,2,13,0.00
2013-6-30,85.6,76.8,70.5,70.2,52.3,18.2,82,48,9,29.29,29.12,13,3,13,0.00
2013-7-1,81.1,74.8,70.7,70.2,63.9,45.4,88,72,30,29.38,29.26,10,3,13,0.00